Theta_e
303 304 304 304 304 304 304 304 302 303 305 305 305 306 302 301 301 310 307 306 311 312 313 314 318 318 315 314 316 313 318 322 320 318 318 318 319 319 318 319 318 322 341 340 341
302 302 303 302 303 303 303 303 303 303 303 304 304 305 305 301 302 309 310 307 302 303 306 312 318 318 313 315 316 317 317 321 319 319 318 318 316 319 320 318 319 340 341 340 341
301 301 302 302 302 302 302 302 302 303 303 303 303 304 303 301 303 309 309 302 301 303 303 310 313 319 318 314 316 318 323 321 320 319 319 320 319 319 319 319 318 322 340 340 341
301 301 301 301 301 301 300 300 300 300 301 302 302 303 302 302 296 309 306 301 301 303 306 311 316 318 318 316 315 318 318 319 320 319 319 320 319 319 317 320 319 318 329 340 341
300 300 300 300 300 299 298 297 296 294 296 300 302 303 300 298 297 303 301 300 302 305 304 306 314 318 318 314 314 316 316 317 318 319 319 319 320 320 319 318 317 317 327 340 341
300 300 300 300 299 297 295 292 293 299 301 302 303 302 302 294 299 300 300 300 302 305 305 304 307 310 313 315 315 314 315 314 315 317 318 320 320 318 320 319 318 318 319 339 340
300 299 299 299 298 296 292 294 299 299 302 303 305 302 301 297 298 300 300 302 303 305 305 305 305 306 311 315 314 315 316 315 314 315 317 318 320 320 320 319 318 317 317 335 340
300 299 299 299 297 293 293 299 299 303 303 303 302 302 298 299 302 303 303 303 305 306 306 306 307 305 309 312 316 317 316 319 315 313 315 319 322 320 319 319 318 316 317 334 341
300 300 300 299 295 294 297 299 301 304 303 301 302 301 301 302 302 304 304 303 306 308 306 306 306 306 309 314 317 319 321 319 318 312 315 319 321 320 318 318 319 317 316 333 341
300 300 300 299 295 296 298 298 301 304 301 303 303 299 300 303 303 304 305 305 307 307 305 308 308 311 311 316 314 316 320 319 318 313 313 318 320 319 319 318 318 316 314 320 338
300 300 299 299 294 295 298 299 297 297 298 298 298 301 300 301 301 301 301 308 308 307 306 305 305 311 308 313 314 315 316 317 317 314 314 315 318 319 319 317 316 315 315 316 334
300 299 299 296 294 296 297 297 297 296 299 298 299 299 300 300 302 302 304 305 306 306 306 305 304 305 305 304 306 310 318 318 316 316 316 315 316 317 317 318 318 317 315 314 321
299 299 298 295 294 295 297 297 297 299 297 297 298 300 300 301 303 302 304 305 305 305 306 306 306 305 305 306 306 308 311 315 317 317 317 316 317 316 316 317 318 319 318 316 316
298 298 298 295 294 295 295 297 298 299 290 294 302 304 301 302 304 303 304 305 305 307 306 306 306 306 307 307 307 307 305 311 315 319 322 317 322 318 316 316 317 318 318 319 315
297 298 297 296 296 295 297 297 299 295 286 293 302 299 298 303 304 305 305 305 306 305 306 304 307 307 308 307 307 307 305 305 310 316 316 319 322 321 316 316 316 317 318 318 318
297 298 297 296 295 294 295 298 296 287 284 298 298 298 299 298 303 304 305 306 305 307 306 306 305 305 306 307 307 309 310 308 309 315 317 318 322 320 319 317 317 316 318 318 318
297 295 295 296 294 294 295 294 288 285 292 299 298 298 299 299 301 299 301 303 303 300 296 303 303 305 306 307 306 308 312 307 309 314 315 313 324 322 317 317 316 317 317 317 317
295 293 294 295 295 296 295 289 285 290 296 298 298 299 300 300 300 300 300 300 304 303 306 301 300 306 307 308 308 309 310 310 302 308 313 312 319 323 318 316 316 317 317 317 317
293 294 297 297 296 296 289 285 288 293 298 299 298 300 299 299 300 299 298 301 301 304 303 303 301 301 305 304 307 308 311 310 310 308 312 318 320 317 318 317 316 315 316 317 316
294 295 296 299 297 297 289 291 295 296 298 298 299 299 300 298 299 298 299 299 302 304 303 305 305 303 303 304 307 308 308 313 314 315 308 312 315 321 319 318 317 316 316 315 317
295 291 296 299 298 291 290 288 295 297 297 298 299 299 300 297 299 298 300 302 301 299 302 304 305 303 303 306 306 307 309 309 312 317 310 310 309 323 324 321 317 316 316 315 313
292 286 295 296 289 284 292 295 298 297 296 297 298 298 297 296 297 298 300 301 300 298 297 301 306 303 304 305 305 306 308 307 308 307 308 319 317 317 322 322 318 317 316 315 313
286 289 294 295 287 283 292 297 297 296 297 295 296 296 296 296 297 298 298 298 299 296 299 303 303 303 303 303 304 303 303 304 306 308 310 311 321 312 314 322 320 318 316 314 313
286 284 285 287 288 293 296 296 297 295 295 295 296 295 295 296 296 297 296 296 296 296 298 300 300 302 303 301 301 304 303 302 305 305 308 307 310 308 310 316 316 315 317 316 314
285 283 287 283 285 294 295 295 295 295 295 295 296 296 296 297 296 296 295 295 295 296 297 299 292 296 298 298 299 302 304 305 305 304 307 307 308 309 313 313 315 314 315 315 315
285 286 288 291 293 294 292 292 295 295 295 296 295 295 295 294 294 296 295 295 295 295 295 295 293 297 296 299 301 300 298 299 304 304 307 309 310 311 310 310 311 312 314 314 314
292 291 289 289 290 288 291 294 295 295 295 294 294 294 295 295 293 293 293 294 294 295 296 295 292 296 295 298 298 296 301 301 302 307 307 307 306 305 309 309 311 311 313 315 313
Wind_Speed
12 12 12 13 14 14 15 16 16 17 19 19 20 20 22 24 25 13 5 5 11 16 17 16 8 5 0 3 4 4 2 12 11 7 3 1 2 3 4 2 4 4 3 2 29
12 12 13 13 13 14 15 16 16 16 16 17 18 20 22 22 21 3 5 5 14 13 11 11 4 8 2 3 3 5 5 12 2 15 4 9 5 4 5 6 5 4 6 16 26
12 14 14 14 15 15 16 16 16 16 16 17 17 16 18 17 4 4 3 12 18 17 7 8 4 1 2 3 5 5 21 10 9 7 6 9 7 2 3 8 7 5 0 8 14
14 15 16 17 18 18 18 18 17 16 16 15 14 14 15 6 4 8 5 13 20 17 6 3 1 2 3 6 4 9 17 7 9 11 5 6 3 8 8 18 6 11 5 11 14
16 18 19 20 21 21 21 22 21 20 18 16 12 11 6 4 7 2 10 16 13 15 11 4 1 3 4 4 3 15 16 11 8 10 9 11 24 17 16 19 7 9 7 13 17
18 19 20 22 23 24 25 24 22 21 21 18 11 5 3 2 3 8 15 17 10 11 6 5 4 6 5 5 6 6 7 13 11 18 11 14 14 6 23 16 11 10 13 13 18
18 20 22 23 24 25 27 23 21 23 21 18 7 1 1 10 12 17 16 10 7 6 3 2 6 3 5 4 5 5 16 14 17 5 7 9 21 22 32 11 10 9 10 11 19
19 21 22 23 25 29 25 22 23 15 17 10 2 5 5 6 13 10 9 4 4 6 6 13 9 4 4 6 4 5 5 15 27 15 7 8 24 31 18 15 16 11 9 10 15
19 20 22 25 29 29 22 23 13 6 13 8 5 3 8 10 4 8 6 2 6 5 14 18 6 5 4 4 4 8 15 20 27 9 5 15 21 36 13 9 15 12 12 10 12
18 20 22 25 30 22 23 20 8 3 8 3 3 3 4 3 8 9 8 8 1 4 6 2 2 3 3 5 15 12 18 16 24 4 11 9 24 34 10 7 11 9 10 10 13
18 20 22 24 29 17 22 7 8 5 7 4 9 4 14 9 12 5 9 2 2 1 1 2 1 7 6 12 17 16 19 21 30 7 9 19 24 29 20 6 9 9 9 12 12
17 19 21 24 26 12 13 6 4 5 9 9 12 8 15 8 4 4 2 3 2 2 2 2 5 11 9 12 15 20 23 28 32 13 17 16 19 27 23 18 14 11 9 11 8
17 18 20 23 15 15 5 6 13 7 3 6 4 4 5 8 4 5 4 1 2 2 5 7 8 7 8 11 13 19 22 27 31 13 19 22 30 22 19 19 20 20 18 12 17
16 17 19 23 3 16 3 13 18 0 4 5 2 1 2 2 4 3 4 2 1 4 4 7 6 9 11 15 12 15 20 22 25 6 12 12 19 20 22 22 16 18 20 22 16
15 16 17 16 12 7 6 17 11 2 5 6 2 2 8 2 5 1 1 2 4 4 1 8 3 6 13 15 8 13 9 19 21 16 16 18 13 18 15 25 22 21 22 21 20
15 17 17 11 11 8 10 15 2 6 5 5 3 7 8 5 5 7 2 2 2 5 5 19 8 6 11 13 14 10 10 13 13 11 16 21 21 25 18 26 20 25 24 19 17
17 20 17 12 4 7 14 4 5 4 4 4 5 8 7 4 5 4 5 4 1 4 4 10 4 3 4 6 9 10 6 4 5 9 11 11 17 25 20 28 25 19 22 24 15
18 21 11 5 4 2 3 5 4 3 3 3 4 9 3 9 5 8 5 3 1 1 4 3 9 1 2 4 5 10 8 5 6 8 17 16 11 23 26 19 27 24 20 17 22
20 13 4 6 3 5 5 4 5 3 3 6 8 3 3 5 1 7 3 3 2 4 2 3 7 5 5 7 5 3 6 15 11 19 11 6 9 24 21 26 30 17 11 17 16
13 9 5 6 8 2 4 3 3 3 4 3 2 3 4 5 5 6 3 3 7 2 4 2 8 4 4 3 5 5 9 6 7 6 9 10 11 11 10 23 28 34 28 16 17
5 3 3 7 2 4 2 5 4 4 4 3 2 4 3 3 3 5 5 4 2 7 3 9 7 5 5 1 2 5 4 4 6 6 4 7 15 6 10 16 27 31 29 25 10
2 2 3 2 3 1 2 3 4 4 3 4 4 4 4 4 4 4 5 2 8 8 8 3 5 5 13 2 4 3 3 3 3 6 5 8 6 9 11 15 16 9 9 8 5
2 2 2 2 1 2 4 4 3 2 2 4 3 4 2 3 5 4 5 5 10 10 4 5 3 5 8 2 2 5 2 2 6 4 5 6 1 15 15 11 13 12 11 10 9
3 2 4 3 1 4 0 3 2 3 5 4 4 4 3 3 6 6 13 6 8 11 20 5 3 9 11 7 12 12 15 10 3 4 9 11 10 22 19 14 13 12 10 10 11
3 3 3 2 3 2 1 2 6 4 4 2 3 2 4 4 10 7 11 18 10 15 3 2 5 10 11 18 19 17 17 18 15 15 8 11 18 19 12 13 10 10 9 10 11
2 2 1 2 2 2 3 3 5 5 3 4 5 7 5 5 8 16 16 12 11 8 7 2 7 11 17 13 8 18 19 17 9 6 8 12 15 6 14 14 10 8 11 9 9
3 2 3 3 1 3 4 5 4 2 6 5 5 10 10 13 8 14 15 16 17 18 20 6 3 1 7 7 14 9 3 6 12 4 3 6 13 14 9 10 9 9 6 6 7
Wind_Direction
19 15 11 6 1 357 352 350 347 346 346 345 346 345 341 342 338 1 20 348 336 327 339 335 349 352 163 251 208 133 220 240 224 212 224 53 131 340 306 244 337 267 286 136 141
14 10 8 5 359 354 350 346 346 344 342 341 342 346 339 342 330 339 58 29 0 352 349 359 358 1 298 202 239 173 213 235 191 226 240 270 302 0 334 325 297 313 52 125 143
11 8 4 0 355 350 344 341 339 337 336 338 341 342 333 331 314 161 257 344 353 354 347 312 295 254 246 214 198 217 239 246 262 249 258 262 275 224 264 283 234 238 159 154 165
10 4 0 357 353 347 341 336 333 329 327 329 333 335 340 343 342 146 345 350 350 354 27 358 104 132 254 228 187 260 252 233 263 265 280 262 214 254 207 253 295 291 240 170 193
5 1 358 356 350 344 339 336 333 330 329 321 320 338 12 12 257 241 305 346 356 15 35 1 225 209 233 256 219 245 257 259 252 258 256 268 254 260 262 255 267 276 268 188 197
4 359 356 353 347 343 338 334 335 334 328 320 312 328 109 310 324 327 327 337 354 11 18 18 304 307 267 250 233 311 307 271 257 256 254 262 273 215 253 259 240 230 246 206 202
1 358 355 351 343 338 335 335 334 331 322 316 313 13 211 244 327 313 315 317 333 343 344 286 303 283 340 272 310 298 292 285 257 203 239 224 272 240 253 247 244 239 245 220 209
359 357 353 347 343 340 335 333 331 338 348 347 59 113 242 281 327 350 348 31 42 338 265 305 287 240 238 297 287 283 256 262 255 219 209 158 262 256 242 237 239 225 238 238 209
354 352 348 346 346 342 341 334 339 348 10 29 66 88 283 322 348 347 2 14 346 310 318 291 228 207 250 209 287 226 256 251 271 210 193 185 249 263 230 198 227 219 227 220 217
347 346 345 345 346 350 346 335 343 347 349 25 65 11 290 302 317 301 291 302 329 310 306 349 133 229 224 191 230 244 244 267 267 278 197 226 237 257 260 236 225 212 221 223 211
338 342 343 342 348 350 354 0 12 351 32 271 276 279 278 308 303 278 305 196 197 128 239 276 103 238 244 244 256 268 266 260 268 242 261 224 235 248 246 190 234 234 231 222 214
336 338 340 341 346 351 31 73 81 284 305 281 259 244 269 264 304 286 126 126 127 235 190 321 241 254 250 266 271 274 259 258 271 253 277 275 255 252 257 241 233 224 233 232 228
335 337 340 339 348 356 49 55 348 348 298 299 255 250 272 148 244 279 130 124 237 281 209 232 243 250 251 249 271 254 260 256 261 290 273 249 263 263 261 248 238 232 232 224 223
338 340 343 341 25 346 11 349 339 272 50 286 313 290 358 228 281 200 181 218 244 282 270 242 268 240 263 250 232 263 246 263 271 290 255 223 264 248 254 253 233 238 231 229 221
335 340 342 342 310 315 321 334 342 84 17 290 45 16 315 289 309 6 90 54 242 245 23 261 243 227 236 251 193 248 245 250 261 262 280 255 263 256 249 245 235 236 234 227 221
332 330 335 335 309 303 333 330 354 45 260 332 40 351 350 335 324 323 324 21 264 293 233 266 266 289 253 273 249 290 289 259 257 247 246 253 223 249 226 242 235 236 235 231 225
325 328 320 292 250 304 327 24 37 119 297 18 339 332 318 312 315 336 312 286 233 12 333 307 269 277 235 272 254 251 274 268 220 213 253 233 219 237 209 226 242 239 236 234 219
328 331 327 300 230 273 354 52 81 268 285 352 325 315 301 24 330 320 303 307 256 318 289 329 322 274 147 213 263 250 222 216 214 222 246 227 239 247 226 251 234 241 237 231 231
336 351 34 13 135 165 70 58 208 232 346 338 322 319 307 22 287 354 307 273 280 204 206 285 267 276 216 250 153 323 210 238 245 261 279 268 263 258 229 227 236 238 238 230 231
342 338 11 21 132 100 72 240 260 230 355 328 282 359 319 333 351 338 308 320 339 2 267 246 276 244 282 288 159 242 291 285 200 204 236 237 271 256 303 238 230 230 234 233 230
359 39 46 111 29 47 161 231 288 278 11 282 287 291 278 300 264 306 282 346 337 343 320 282 234 278 349 344 287 351 343 287 277 246 221 241 241 359 350 312 232 232 229 232 230
52 34 355 43 41 301 185 218 285 291 313 282 240 245 273 327 284 276 252 230 314 355 319 264 302 289 282 308 210 261 242 291 313 307 278 259 231 35 23 14 9 35 21 24 62
92 277 340 161 135 250 257 258 252 289 314 339 282 265 308 318 317 305 324 345 319 339 321 324 309 309 308 310 311 288 226 187 274 285 275 336 140 7 1 33 9 14 17 23 31
74 14 324 42 12 147 222 272 278 314 281 236 261 296 358 313 280 297 298 300 313 298 298 312 281 310 310 322 298 291 292 291 224 265 317 287 307 334 328 3 351 360 5 6 20
39 252 189 281 317 127 75 272 284 281 228 268 285 329 336 284 302 276 307 306 295 293 298 295 264 283 275 305 289 285 284 297 281 266 260 311 308 301 319 331 336 349 357 8 13
128 138 317 277 289 226 256 248 229 245 226 239 260 291 285 249 256 287 288 284 280 284 279 248 259 320 295 280 315 311 302 299 294 259 253 283 299 293 313 316 323 359 351 4 9
181 162 112 256 220 105 227 228 252 265 253 243 279 306 289 274 276 283 270 269 260 265 268 243 223 279 276 323 322 310 223 291 316 265 246 288 289 281 291 301 324 328 323 2 9